PY1LEO-13 Weather Reports


time (UTC)temp
C
wind
direction
speed
KPH
gust
KPH
rain 1hr
cm
rain 24hr
cm
rain mn
cm
humidity
%
barometer
mb
20260510045101 28 0.0 0.0 0.00 0.00 0.00 58 1014.7
20260510044601 28 0.0 0.0 0.00 0.00 0.00 57 1014.8
20260510044101 29 0.0 0.0 0.00 0.00 0.00 56 1014.7
20260510043601 29 0.0 0.0 0.00 0.00 0.00 55 1014.7
20260510043101 29 0.0 0.0 0.00 0.00 0.00 55 1014.6
20260510042601 29 0.0 0.0 0.00 0.00 0.00 55 1014.6
20260510042101 29 0.0 0.0 0.00 0.00 0.00 53 1014.7
20260510041601 29 0.0 0.0 0.00 0.00 0.00 52 1014.6
20260510040552 29 0.0 0.0 0.00 0.00 0.00 55 1014.7
20260510040052 29 0.0 0.0 0.00 0.00 0.00 55 1014.7
20260510035553 29 0.0 0.0 0.00 0.00 0.00 55 1014.8
20260510035052 29 0.0 0.0 0.00 0.00 0.00 55 1014.8
20260510034553 29 0.0 0.0 0.00 0.00 0.00 56 1014.9
20260510034052 30 0.0 0.0 0.00 0.00 0.00 56 1014.8
20260510033552 29 0.0 0.0 0.00 0.00 0.00 57 1014.8
20260510033052 29 0.0 0.0 0.00 0.00 0.00 57 1014.7
20260510032553 30 0.0 0.0 0.00 0.00 0.00 56 1014.6
20260510032052 30 0.0 0.0 0.00 0.00 0.00 56 1014.6
20260510031552 30 0.0 0.0 0.00 0.00 0.00 55 1014.7
20260510031052 30 0.0 0.0 0.00 0.00 0.00 54 1014.8
20260510030552 30 0.0 0.0 0.00 0.00 0.00 50 1014.7
20260510030052 30 0.0 0.0 0.00 0.00 0.00 48 1014.8
20260510025552 30 0.0 0.0 0.00 0.00 0.00 48 1014.8
20260510025054 30 0.0 0.0 0.00 0.00 0.00 48 1014.8
20260510024553 30 0.0 0.0 0.00 0.00 0.00 49 1014.8
20260510023553 30 0.0 0.0 0.00 0.00 0.00 49 1014.9
20260510023052 30 0.0 0.0 0.00 0.00 0.00 49 1014.9
20260510022251 30 0.0 0.0 0.00 0.00 0.00 50 1014.9
20260510021755 30 0.0 0.0 0.00 0.00 0.00 50 1014.9
20260510021251 30 0.0 0.0 0.00 0.00 0.00 50 1014.9
20260510020251 30 0.0 0.0 0.00 0.00 0.00 51 1014.9
20260510014751 30 0.0 0.0 0.00 0.00 0.00 53 1014.9
20260510014253 30 0.0 0.0 0.00 0.00 0.00 53 1015.0
20260510012751 30 0.0 0.0 0.00 0.00 0.00 54 1015.1
20260510012251 30 0.0 0.0 0.00 0.00 0.00 53 1015.1
20260510011751 30 0.0 0.0 0.00 0.00 0.00 53 1015.1
20260510011253 30 0.0 0.0 0.00 0.00 0.00 54 1015.1
20260510010751 30 0.0 0.0 0.00 0.00 0.00 54 1015.0
20260510010251 30 0.0 0.0 0.00 0.00 0.00 54 1014.9
20260510005751 30 0.0 0.0 0.00 0.00 0.00 54 1014.9
20260510005252 30 0.0 0.0 0.00 0.00 0.00 54 1015.1
20260510004751 30 0.0 0.0 0.00 0.00 0.00 54 1015.1
20260510004251 30 0.0 0.0 0.00 0.00 0.00 54 1015.2
20260510003751 30 0.0 0.0 0.00 0.00 0.00 54 1015.1
20260510003251 30 0.0 0.0 0.00 0.00 0.00 54 1015.0
20260510002754 30 0.0 0.0 0.00 0.00 0.00 55 1015.0
20260510001751 30 0.0 0.0 0.00 0.00 0.00 53 1015.0
20260510001251 30 0.0 0.0 0.00 0.00 0.00 53 1015.0
20260510000751 30 0.0 0.0 0.00 0.00 0.00 53 1014.9
20260510000251 30 0.0 0.0 0.00 0.00 0.00 53 1014.9
20260509235751 30 0.0 0.0 0.00 0.00 0.00 53 1014.8
20260509233752 30 0.0 0.0 0.00 0.00 0.00 53 1014.7
20260509233251 30 0.0 0.0 0.00 0.00 0.00 53 1014.6
20260509232751 30 0.0 0.0 0.00 0.00 0.00 52 1014.5
20260509230751 31 0.0 0.0 0.00 0.00 0.00 50 1014.5
20260509230251 31 0.0 0.0 0.00 0.00 0.00 51 1014.5
20260509225751 31 0.0 0.0 0.00 0.00 0.00 51 1014.3
20260509225251 31 0.0 0.0 0.00 0.00 0.00 50 1014.3
20260509224751 31 0.0 0.0 0.00 0.00 0.00 50 1014.2
20260509224252 31 0.0 0.0 0.00 0.00 0.00 50 1014.1
20260509223751 31 0.0 0.0 0.00 0.00 0.00 50 1014.0
20260509222754 31 0.0 0.0 0.00 0.00 0.00 49 1013.9
20260509221751 31 0.0 0.0 0.00 0.00 0.00 49 1013.7
20260509221251 31 0.0 0.0 0.00 0.00 0.00 49 1013.6
20260509220751 31 0.0 0.0 0.00 0.00 0.00 49 1013.5
20260509220251 31 0.0 0.0 0.00 0.00 0.00 49 1013.4
20260509215751 31 0.0 0.0 0.00 0.00 0.00 48 1013.3
20260509215251 31 0.0 0.0 0.00 0.00 0.00 47 1013.3
20260509214751 31 0.0 0.0 0.00 0.00 0.00 49 1013.2
20260509214251 31 0.0 0.0 0.00 0.00 0.00 50 1013.2
20260509213751 31 0.0 0.0 0.00 0.00 0.00 50 1013.1
20260509213251 31 0.0 0.0 0.00 0.00 0.00 50 1013.1
20260509212751 31 0.0 0.0 0.00 0.00 0.00 50 1013.1
20260509212251 31 0.0 0.0 0.00 0.00 0.00 50 1013.1
20260509211751 31 0.0 0.0 0.00 0.00 0.00 50 1013.0
20260509211251 31 0.0 0.0 0.00 0.00 0.00 50 1013.0
20260509210751 31 0.0 0.0 0.00 0.00 0.00 50 1012.9
20260509210251 31 0.0 0.0 0.00 0.00 0.00 50 1012.9
20260509205751 31 0.0 0.0 0.00 0.00 0.00 50 1012.9
20260509205251 31 0.0 0.0 0.00 0.00 0.00 49 1012.9
20260509204751 31 0.0 0.0 0.00 0.00 0.00 49 1012.9
20260509204251 31 0.0 0.0 0.00 0.00 0.00 48 1012.9
20260509203751 31 0.0 0.0 0.00 0.00 0.00 47 1012.9
20260509203251 31 0.0 0.0 0.00 0.00 0.00 46 1012.9
20260509202751 30 0.0 0.0 0.00 0.00 0.00 50 1013.0
20260509202251 31 0.0 0.0 0.00 0.00 0.00 44 1012.9
20260509201751 31 0.0 0.0 0.00 0.00 0.00 43 1012.9
20260509201251 31 0.0 0.0 0.00 0.00 0.00 42 1012.8
20260509200254 31 0.0 0.0 0.00 0.00 0.00 42 1012.8
20260509195752 31 0.0 0.0 0.00 0.00 0.00 44 1012.8
20260509194751 31 0.0 0.0 0.00 0.00 0.00 42 1012.8
20260509194251 31 0.0 0.0 0.00 0.00 0.00 41 1012.8
20260509193751 31 0.0 0.0 0.00 0.00 0.00 42 1012.7
20260509193251 32 0.0 0.0 0.00 0.00 0.00 41 1012.7
20260509192751 32 0.0 0.0 0.00 0.00 0.00 40 1012.7
20260509192251 32 0.0 0.0 0.00 0.00 0.00 40 1012.7
20260509191751 32 0.0 0.0 0.00 0.00 0.00 40 1012.7
20260509191251 32 0.0 0.0 0.00 0.00 0.00 40 1012.7
20260509190751 32 0.0 0.0 0.00 0.00 0.00 42 1012.7
20260509190251 32 0.0 0.0 0.00 0.00 0.00 40 1012.7
20260509185751 32 0.0 0.0 0.00 0.00 0.00 40 1012.7
20260509185251 31 0.0 0.0 0.00 0.00 0.00 41 1012.6
20260509184751 31 0.0 0.0 0.00 0.00 0.00 41 1012.6
20260509184251 31 0.0 0.0 0.00 0.00 0.00 42 1012.6
20260509183751 31 0.0 0.0 0.00 0.00 0.00 43 1012.5
20260509183252 32 0.0 0.0 0.00 0.00 0.00 42 1012.5
20260509182751 32 0.0 0.0 0.00 0.00 0.00 42 1012.6
20260509181751 32 0.0 0.0 0.00 0.00 0.00 40 1012.5
20260509181251 32 0.0 0.0 0.00 0.00 0.00 40 1012.5
20260509180751 34 0.0 0.0 0.00 0.00 0.00 37 1012.5
20260509180251 33 0.0 0.0 0.00 0.00 0.00 37 1012.5
20260509175751 32 0.0 0.0 0.00 0.00 0.00 38 1012.5
20260509174751 33 0.0 0.0 0.00 0.00 0.00 38 1012.4
20260509174251 34 0.0 0.0 0.00 0.00 0.00 37 1012.4
20260509173751 33 0.0 0.0 0.00 0.00 0.00 37 1012.4
20260509173251 33 0.0 0.0 0.00 0.00 0.00 37 1012.3
20260509172251 34 0.0 0.0 0.00 0.00 0.00 35 1012.2
20260509171751 35 0.0 0.0 0.00 0.00 0.00 33 1012.1
20260509171250 33 0.0 0.0 0.00 0.00 0.00 38 1012.1
20260509170755 33 0.0 0.0 0.00 0.00 0.00 35 1012.1
20260509170253 33 0.0 0.0 0.00 0.00 0.00 36 1012.2
20260509165751 33 0.0 0.0 0.00 0.00 0.00 34 1012.2
20260509165250 33 0.0 0.0 0.00 0.00 0.00 34 1012.2
20260509164751 33 0.0 0.0 0.00 0.00 0.00 34 1012.3
20260509164251 33 0.0 0.0 0.00 0.00 0.00 34 1012.3
20260509163750 33 0.0 0.0 0.00 0.00 0.00 36 1012.2
20260509163252 34 0.0 0.0 0.00 0.00 0.00 33 1012.3
20260509161753 34 0.0 0.0 0.00 0.00 0.00 35 1012.5
20260509161251 33 0.0 0.0 0.00 0.00 0.00 34 1012.6
20260509160752 33 0.0 0.0 0.00 0.00 0.00 35 1012.6
20260509160250 33 0.0 0.0 0.00 0.00 0.00 35 1012.6
20260509155751 33 0.0 0.0 0.00 0.00 0.00 36 1012.6
20260509155251 33 0.0 0.0 0.00 0.00 0.00 35 1012.7
20260509154751 33 0.0 0.0 0.00 0.00 0.00 36 1012.6
20260509154250 32 0.0 0.0 0.00 0.00 0.00 39 1012.7
20260509153750 32 0.0 0.0 0.00 0.00 0.00 37 1012.8
20260509153251 32 0.0 0.0 0.00 0.00 0.00 39 1012.9
20260509152750 32 0.0 0.0 0.00 0.00 0.00 39 1013.0
20260509152251 33 0.0 0.0 0.00 0.00 0.00 35 1013.1
20260509151751 32 0.0 0.0 0.00 0.00 0.00 36 1013.1
20260509151250 33 0.0 0.0 0.00 0.00 0.00 37 1013.2
20260509150751 33 0.0 0.0 0.00 0.00 0.00 36 1013.2
20260509150251 34 0.0 0.0 0.00 0.00 0.00 33 1013.2
20260509145750 34 0.0 0.0 0.00 0.00 0.00 36 1013.3
20260509145250 33 0.0 0.0 0.00 0.00 0.00 37 1013.3
20260509144751 33 0.0 0.0 0.00 0.00 0.00 37 1013.4
20260509144250 33 0.0 0.0 0.00 0.00 0.00 37 1013.6
20260509143750 32 0.0 0.0 0.00 0.00 0.00 38 1013.7
20260509143250 33 0.0 0.0 0.00 0.00 0.00 38 1013.8
20260509142750 33 0.0 0.0 0.00 0.00 0.00 39 1013.8
20260509141751 33 0.0 0.0 0.00 0.00 0.00 37 1013.9
20260509140751 32 0.0 0.0 0.00 0.00 0.00 38 1014.0
20260509140250 33 0.0 0.0 0.00 0.00 0.00 37 1014.0
20260509135750 32 0.0 0.0 0.00 0.00 0.00 39 1014.1
20260509135253 33 0.0 0.0 0.00 0.00 0.00 39 1014.2
20260509134750 32 0.0 0.0 0.00 0.00 0.00 41 1014.2
20260509134251 32 0.0 0.0 0.00 0.00 0.00 42 1014.3
20260509133750 32 0.0 0.0 0.00 0.00 0.00 39 1014.4
20260509133251 32 0.0 0.0 0.00 0.00 0.00 39 1014.5
20260509132250 32 0.0 0.0 0.00 0.00 0.00 41 1014.6
20260509131750 31 0.0 0.0 0.00 0.00 0.00 40 1014.6
20260509130250 31 0.0 0.0 0.00 0.00 0.00 41 1014.9
20260509125752 31 0.0 0.0 0.00 0.00 0.00 42 1015.0
20260509125250 30 0.0 0.0 0.00 0.00 0.00 42 1014.9
20260509124250 30 0.0 0.0 0.00 0.00 0.00 43 1015.0
20260509120750 30 0.0 0.0 0.00 0.00 0.00 41 1014.3
20260509120251 30 0.0 0.0 0.00 0.00 0.00 42 1014.2
20260509115752 30 0.0 0.0 0.00 0.00 0.00 41 1014.1
20260509115250 30 0.0 0.0 0.00 0.00 0.00 42 1014.1
20260509114752 30 0.0 0.0 0.00 0.00 0.00 42 1014.0
20260509113753 30 0.0 0.0 0.00 0.00 0.00 43 1013.9
20260509113252 30 0.0 0.0 0.00 0.00 0.00 42 1013.9
20260509112750 30 0.0 0.0 0.00 0.00 0.00 43 1013.9
20260509112251 30 0.0 0.0 0.00 0.00 0.00 42 1013.9
20260509111252 30 0.0 0.0 0.00 0.00 0.00 42 1013.8
20260509105750 29 0.0 0.0 0.00 0.00 0.00 42 1013.6
20260509103252 29 0.0 0.0 0.00 0.00 0.00 42 1013.5
20260509102251 30 0.0 0.0 0.00 0.00 0.00 41 1013.5
20260509101253 30 0.0 0.0 0.00 0.00 0.00 41 1013.4
20260509094751 29 0.0 0.0 0.00 0.00 0.00 40 1013.1
20260509085250 30 0.0 0.0 0.00 0.00 0.00 39 1012.7
20260509084750 30 0.0 0.0 0.00 0.00 0.00 40 1012.6
20260509084250 29 0.0 0.0 0.00 0.00 0.00 40 1012.6
20260509083750 30 0.0 0.0 0.00 0.00 0.00 39 1012.6
20260509083250 30 0.0 0.0 0.00 0.00 0.00 39 1012.5
20260509082751 30 0.0 0.0 0.00 0.00 0.00 39 1012.6
20260509082250 29 0.0 0.0 0.00 0.00 0.00 40 1012.4
20260509081751 30 0.0 0.0 0.00 0.00 0.00 39 1012.4
20260509081250 30 0.0 0.0 0.00 0.00 0.00 39 1012.3
20260509080750 30 0.0 0.0 0.00 0.00 0.00 39 1012.2
20260509080251 30 0.0 0.0 0.00 0.00 0.00 40 1012.1
20260509075750 30 0.0 0.0 0.00 0.00 0.00 40 1012.0
20260509075250 29 0.0 0.0 0.00 0.00 0.00 40 1012.0
20260509074752 30 0.0 0.0 0.00 0.00 0.00 40 1012.1
20260509074250 30 0.0 0.0 0.00 0.00 0.00 40 1012.1
20260509073750 30 0.0 0.0 0.00 0.00 0.00 40 1012.1
20260509073250 30 0.0 0.0 0.00 0.00 0.00 40 1012.3
20260509072750 30 0.0 0.0 0.00 0.00 0.00 40 1012.2
20260509072250 30 0.0 0.0 0.00 0.00 0.00 39 1012.1
20260509071750 30 0.0 0.0 0.00 0.00 0.00 39 1012.2
20260509071250 30 0.0 0.0 0.00 0.00 0.00 40 1012.1
20260509070750 29 0.0 0.0 0.00 0.00 0.00 41 1012.1
20260509070250 30 0.0 0.0 0.00 0.00 0.00 40 1012.2
20260509065750 30 0.0 0.0 0.00 0.00 0.00 39 1012.1
20260509065250 30 0.0 0.0 0.00 0.00 0.00 40 1012.2
20260509064751 30 0.0 0.0 0.00 0.00 0.00 40 1012.1
20260509064250 29 0.0 0.0 0.00 0.00 0.00 41 1012.2
20260509063750 30 0.0 0.0 0.00 0.00 0.00 41 1012.1
20260509063250 29 0.0 0.0 0.00 0.00 0.00 41 1012.2
20260509062750 30 0.0 0.0 0.00 0.00 0.00 41 1012.3
20260509062250 30 0.0 0.0 0.00 0.00 0.00 41 1012.4
20260509061750 30 0.0 0.0 0.00 0.00 0.00 41 1012.4
20260509061250 29 0.0 0.0 0.00 0.00 0.00 41 1012.4
20260509060750 29 0.0 0.0 0.00 0.00 0.00 41 1012.5
20260509055750 30 0.0 0.0 0.00 0.00 0.00 41 1012.3
20260509055250 30 0.0 0.0 0.00 0.00 0.00 42 1012.4
20260509054751 29 0.0 0.0 0.00 0.00 0.00 42 1012.3
20260509053750 29 0.0 0.0 0.00 0.00 0.00 42 1012.2
20260509053250 29 0.0 0.0 0.00 0.00 0.00 42 1012.2
20260509052750 29 0.0 0.0 0.00 0.00 0.00 42 1012.3
20260509052250 29 0.0 0.0 0.00 0.00 0.00 42 1012.3
20260509051750 29 0.0 0.0 0.00 0.00 0.00 42 1012.4
20260509051250 29 0.0 0.0 0.00 0.00 0.00 43 1012.5
20260509050751 29 0.0 0.0 0.00 0.00 0.00 42 1012.5
20260509050250 29 0.0 0.0 0.00 0.00 0.00 43 1012.5
20260509045750 29 0.0 0.0 0.00 0.00 0.00 43 1012.4